Regional Weather Roundup
Issued by NWS

Home | Current Version | Previous Version | Graphics & Text | Print | Product List | Glossary On
Versions: 1 2 3 4 5 6 7 8 9 10 11 12 13 14 15 16 17 18 19 20 21 22 23 24 25 26 27 28 29 30 31 32 33 34 35 36 37 38 39 40 41 42 43 44 45 46 47 48 49 50
394
ASUS43 KIND 050809
RWRIN

WEATHER ROUNDUP FOR INDIANA
NATIONAL WEATHER SERVICE INDIANAPOLIS IN
300 AM EST MON DEC 05 2016

NOTE: "FAIR" INDICATES FEW OR NO CLOUDS BELOW 12,000 FEET WITH NO
SIGNIFICANT WEATHER AND/OR OBSTRUCTIONS TO VISIBILITY.

* - STATION DOES NOT REPORT WEATHER SUCH AS PRECIPITATION OR FOG.

+ - STATION NOT QUALITY CONTROLLED BY THE NATIONAL WEATHER SERVICE.
    USE DATA WITH CAUTION...ESPECIALLY DEWPOINT AND RELATIVE
    HUMIDITY OBSERVATIONS.

INZ001>003-010>013-019-020-050900-
NORTHWEST INDIANA

CITY           SKY/WX    TMP DP  RH WIND       PRES   REMARKS
GARY /AIRPORT/ CLOUDY    35  33  93 W13       29.98R WCI  26
KNOX *+        CLOUDY    32  27  80 W10       29.98R WCI  24
LA PORTE +     CLOUDY   N/A N/A N/A W10G21    29.98R
MICHIGAN CITY+ CLOUDY    32  32 100 W8        29.97S WCI  25
MONTICELLO +   CLOUDY    32  29  88 W6        30.01R WCI  27
RENSSELAER +   CLOUDY    32  32 100 W9        30.01R WCI  24
VALPARAISO     CLOUDY    33  30  88 MISG      29.98R

$$

LMZ046-743>745-050900-
SOUTHERN LAKE MICHIGAN

STATION/POSITION TIME  TEMP    WIND        PRES    WAVE
                       AIR SEA DIR/SP/G            HT
                 (UTC) (F)     (DEG/KT/KT) (MB)    (FT)
BURNS HARBOR     0740   35     260/ 18/ 22 1014.9S

$$

INZ004-005-014>016-021>024-050900-
NORTH CENTRAL INDIANA

CITY           SKY/WX    TMP DP  RH WIND       PRES   REMARKS
GOSHEN         CLOUDY    33  29  85 W15       29.97R WCI  23
LOGANSPORT +   CLOUDY    32  32 100 W10       30.02R WCI  24
PERU/GRISSOM   CLOUDY    32  32 100 W9        30.00R WCI  24
ROCHESTER +    CLOUDY    34  34 100 W10       30.00R WCI  26
SOUTH BEND     CLOUDY    32  31  96 W9        29.97R WCI  24
WARSAW +       CLOUDY    32  30  93 W8        29.97R WCI  25

$$

INZ006>009-017-018-025>027-050900-
NORTHEAST INDIANA

CITY           SKY/WX    TMP DP  RH WIND       PRES   REMARKS
ANGOLA *+      CLOUDY    34  34 100 W8        29.92R WCI  27
AUBURN +       CLOUDY    34  32  93 W8        29.96R WCI  27
FORT WAYNE     CLOUDY    34  30  85 W10       29.97R WCI  26
HUNTINGTON +   CLOUDY    32  31  95 W9        29.98R WCI  25
KENDALLVILLE + CLOUDY    33  32  96 W13       29.95R WCI  24

$$

INZ028-029-035-036-043>045-051>053-050900-
WEST CENTRAL INDIANA

CITY           SKY/WX    TMP DP  RH WIND       PRES   REMARKS
CRAWFORDSVL +  CLOUDY    32  32 100 W8        30.05R WCI  25
GREENCASTLE +  CLOUDY    34  32  93 W6        30.05R WCI  29
LAFAYETTE      CLOUDY    33  32  96 W10       30.03R WCI  25
TERRE HAUTE    CLOUDY    36  31  82 NW9       30.07R

$$

INZ030>032-037>040-046>048-054>057-064-065-050900-
CENTRAL INDIANA

CITY           SKY/WX    TMP DP  RH WIND       PRES   REMARKS
CP ATTERBURY + CLOUDY    36  32  87 W7        30.05R
FISHERS *+     CLOUDY    34  34 100 W6        30.04  WCI  29
FRANKFORT +    CLOUDY    36  33  89 W13       30.04R
GREENWOOD *+   CLOUDY    36  32  88 W6        30.03R
INDIANAPOLIS   CLOUDY    35  31  85 W10       30.03R WCI  27
-EAGLE CREEK   CLOUDY    35  31  85 W9        30.03R WCI  28
KOKOMO +       CLOUDY    33  31  92 W10       30.02R WCI  25
MARION +       CLOUDY    32  31  95 W10       30.01R WCI  24
MT COMFORT *+  CLOUDY    34  32  93 W10       30.03R WCI  26
SHELBYVILLE    CLOUDY    36  30  79 W9        30.03R
ZIONSVILLE +   CLOUDY    33  31  91 W9        30.03R WCI  26

$$

INZ033-034-041-042-049-050-058-059-050900-
EAST CENTRAL INDIANA

CITY           SKY/WX    TMP DP  RH WIND       PRES   REMARKS
MUNCIE         CLOUDY    35  31  85 W9        30.00R WCI  28

$$

INZ060-061-067>069-081>083-085>088-050900-
SOUTHWEST INDIANA

CITY           SKY/WX    TMP DP  RH WIND       PRES   REMARKS
EVANSVILLE     CLOUDY    40  33  76 W6        30.09R
HUNTINGBURG *+ CLOUDY    37  34  87 NW5       30.08R
WASHINGTON +   CLOUDY    37  34  89 W6        30.08R

$$

INZ062-063-066-070>080-084-089>092-050900-
SOUTH CENTRAL AND SOUTHEAST INDIANA

CITY           SKY/WX    TMP DP  RH WIND       PRES   REMARKS
BLOOMINGTON    CLOUDY    35  30  82 NW6       30.05R WCI  30
MADISON *+     CLOUDY    37  32  81 W8        30.06R
NORTH VERNON + CLOUDY   N/A N/A N/A W7        30.04R
SEYMOUR +      CLOUDY    39  34  81 W8        30.05R

$$





USA.gov is the U.S. government's official web portal to all federal, state and local government web resources and services.